RH
17 15 13 12 11 10 9 8 8 8 8 7 6 5 5 5 5 5 5 4 3 3 3 2 2 2 3 3 3 4 4 4 3 3 3 3 2 3 2 3 3 3 3 2 3 3 3 3 4 6 6 7 9 10 13 14 16 17 18 19 21 22 23 24 26 27 28 29 29 28 26 25 24 22 21 21 20 21 22 23 24 24 23 22 21 20 21 21
13 12 11 11 11 10 10 9 8 8 7 6 5 5 5 5 5 4 3 3 3 3 3 3 4 4 5 5 5 5 6 5 3 3 3 3 2 2 2 2 3 3 3 3 4 5 6 7 9 10 12 13 15 17 19 20 21 22 23 24 24 24 24 25 26 26 26 24 23 21 19 19 18 17 17 18 18 19 20 20 19 18 18 18 18 19 20 20
12 12 11 11 10 9 8 7 6 6 6 5 5 5 5 4 4 3 3 3 3 4 4 5 6 6 7 7 8 8 8 7 6 6 5 5 4 4 4 5 5 5 6 7 8 9 11 12 14 16 18 19 21 23 23 24 25 24 25 27 24 23 23 22 22 21 20 19 18 17 16 15 15 15 15 16 16 17 17 17 17 17 18 19 20 20 21 20
10 9 8 7 6 6 6 6 6 6 6 5 5 4 4 4 4 4 4 4 5 6 7 8 8 9 10 10 10 10 10 10 10 9 9 9 9 9 9 9 10 10 12 13 14 15 16 18 20 21 22 24 25 25 25 25 25 23 23 23 20 18 19 17 16 16 16 15 15 14 13 13 14 14 14 15 15 16 16 17 18 19 20 21 22 21 21 20
6 6 6 6 7 7 8 7 6 6 5 4 4 4 4 4 5 5 6 7 7 8 9 10 11 12 13 14 15 15 15 15 15 14 14 14 14 14 15 15 16 17 18 19 19 20 21 22 23 24 24 25 25 24 23 22 21 19 17 17 15 14 15 13 13 13 13 13 12 13 14 13 13 15 15 15 16 17 17 18 19 20 21 21 21 21 21 20
8 9 9 9 9 8 7 5 5 4 4 4 4 4 5 6 6 7 8 9 10 11 13 15 17 19 20 21 21 22 21 21 22 21 20 20 19 20 20 20 21 21 21 22 22 23 24 24 24 24 23 21 19 18 16 15 15 15 14 13 13 13 13 13 12 12 12 13 13 14 15 14 14 15 16 17 17 18 19 19 20 21 21 22 22 22 22 20
10 10 8 7 6 5 5 4 4 4 5 5 5 6 7 7 8 9 10 12 15 17 20 22 23 25 25 26 26 26 26 25 25 25 24 23 22 22 22 22 23 23 24 25 25 25 24 21 20 19 17 15 13 13 12 12 12 12 12 13 13 13 14 14 14 14 13 14 15 15 16 17 16 17 18 18 19 20 20 21 21 22 22 23 23 23 21 19
7 6 5 5 5 6 6 6 6 6 7 7 7 8 8 9 10 12 16 19 22 24 25 26 27 28 27 28 28 27 28 28 26 26 25 24 24 23 24 24 24 24 24 24 23 21 18 15 14 13 12 11 11 11 11 12 12 12 13 14 14 14 15 16 16 17 16 16 17 16 18 19 18 19 19 20 20 21 22 22 23 23 24 24 24 23 22 21
7 7 7 8 8 8 8 7 7 7 8 8 9 10 12 14 18 21 24 26 28 28 29 30 30 29 27 27 27 26 27 28 27 27 26 25 25 24 24 24 22 21 19 19 17 15 13 11 11 11 11 11 11 12 12 13 13 14 15 15 16 16 17 17 17 18 18 18 18 18 19 20 20 20 21 21 22 23 23 24 24 24 25 25 25 24 23 22
10 10 10 9 9 8 8 8 9 9 11 13 15 18 22 25 27 29 30 30 31 32 33 31 29 26 24 24 23 23 24 24 24 23 23 22 21 20 20 19 16 15 14 13 12 11 10 11 11 12 12 13 13 14 14 15 15 15 16 16 16 16 15 16 16 16 17 18 18 19 19 20 21 21 22 23 23 24 25 25 25 26 26 27 27 25 24 23
11 10 10 10 11 11 12 14 15 18 20 23 26 28 30 31 31 32 32 33 33 32 31 28 25 24 22 21 21 22 21 21 20 19 18 18 17 16 15 13 12 11 11 11 10 10 11 12 13 13 14 14 14 14 15 15 15 14 14 14 14 14 14 14 14 14 15 17 18 20 19 20 22 22 23 24 25 26 26 26 27 27 28 29 28 26 25 25
11 12 13 15 17 19 22 24 26 28 30 32 33 33 33 33 33 34 34 34 31 29 27 26 25 22 20 20 21 20 19 19 18 16 16 14 13 12 11 10 9 10 10 10 11 12 13 14 14 15 15 14 14 14 14 15 15 13 13 13 13 13 13 13 13 13 15 17 18 19 19 20 22 22 24 25 26 27 27 28 28 29 30 30 28 27 27 27
17 19 21 24 26 28 30 32 34 36 37 37 37 37 37 36 35 34 32 31 28 27 25 25 24 20 20 21 20 19 18 17 16 14 12 11 10 9 9 9 10 11 12 13 14 15 15 15 15 15 15 15 14 14 13 13 13 13 13 13 13 13 14 13 13 14 15 16 17 17 18 19 21 23 25 27 28 29 29 30 30 31 31 30 29 29 29 30
26 28 30 32 34 36 37 39 40 41 41 41 40 39 37 35 33 31 30 28 27 26 25 26 25 22 22 20 17 17 16 14 12 11 10 10 10 11 12 13 13 14 15 15 16 16 16 15 15 15 15 14 14 14 13 12 12 13 13 13 13 13 13 13 13 14 14 15 15 15 17 19 22 24 26 28 29 30 31 32 32 32 32 32 31 30 30 30
33 35 37 39 40 42 43 43 43 42 41 40 38 36 34 32 31 29 28 27 26 25 24 25 23 20 19 16 14 14 12 11 10 10 11 12 13 14 15 16 16 16 15 15 15 16 16 15 15 14 14 13 13 13 13 12 12 13 13 13 13 13 13 13 13 13 14 14 14 15 17 20 23 25 28 29 30 31 32 34 34 34 33 34 32 31 31 31
39 41 42 43 43 43 42 41 40 38 37 35 34 33 31 29 29 28 26 25 24 22 22 21 17 16 15 12 12 12 11 11 11 12 14 15 16 16 17 17 17 17 15 15 15 16 16 14 14 14 13 13 13 13 13 12 13 13 13 13 13 13 13 13 13 13 13 14 15 16 19 22 24 26 28 30 31 33 35 36 36 35 35 34 33 33 32 32
42 43 44 43 42 40 38 36 35 34 34 32 32 30 29 28 27 26 24 22 20 18 19 18 16 15 13 13 15 15 14 14 14 16 16 16 18 17 17 17 17 17 17 16 15 15 15 14 14 14 13 13 13 13 12 12 12 12 13 13 13 13 13 12 13 13 13 14 15 18 20 22 24 27 29 31 33 35 36 37 37 37 36 34 33 33 32 33
43 43 43 41 39 37 34 33 31 31 31 31 30 28 27 26 24 22 20 18 18 18 18 18 18 17 16 17 19 17 17 17 17 17 15 17 19 17 17 18 17 18 18 16 15 14 14 14 14 14 13 13 12 12 12 12 12 12 12 13 12 12 12 12 12 13 13 14 15 17 20 22 25 27 29 32 35 37 37 38 39 37 36 35 34 33 33 34
42 42 40 39 36 34 32 30 29 28 29 28 28 26 24 22 21 20 19 18 20 20 19 20 21 18 18 19 19 18 19 18 17 16 15 18 20 18 18 19 18 18 17 16 14 13 14 14 14 14 13 13 12 12 12 12 12 12 12 12 12 12 12 12 12 13 14 15 15 15 19 24 25 26 29 32 36 38 38 39 40 38 36 36 34 34 34 35
42 40 38 36 33 31 29 28 28 26 25 24 25 24 21 21 21 20 20 21 22 21 21 22 21 19 18 18 17 18 18 16 16 16 16 17 19 19 18 18 18 17 16 15 14 12 14 15 14 13 13 13 12 12 12 12 12 12 12 12 12 12 12 12 12 13 14 15 15 16 21 24 24 26 28 30 35 39 40 41 42 39 37 36 35 35 35 35
42 40 36 34 31 29 28 27 25 24 23 23 23 23 21 20 21 22 23 23 22 21 21 21 20 19 18 17 16 18 18 16 17 16 15 17 19 18 17 19 19 16 15 15 13 13 14 14 13 13 13 13 12 12 12 12 12 12 12 12 12 12 12 12 13 13 14 15 15 16 19 22 23 24 27 30 35 40 41 41 40 38 37 37 36 36 36 35
41 37 34 32 29 28 26 25 24 23 23 23 22 23 23 22 23 24 25 23 21 21 20 20 19 18 18 18 17 17 18 18 17 16 16 18 19 19 19 20 19 16 15 15 14 14 14 13 12 13 12 12 12 12 12 12 12 12 12 12 12 12 12 12 12 13 14 14 15 15 16 19 23 23 25 31 34 39 42 40 37 38 40 39 38 36 35 34
36 34 31 29 27 26 25 24 24 24 24 24 24 24 24 24 25 25 24 22 21 21 20 19 18 18 18 18 18 18 19 19 18 17 17 19 20 20 20 19 17 16 16 15 15 14 12 10 11 13 12 12 12 11 11 11 11 11 11 11 11 12 12 12 12 13 14 14 13 14 14 17 21 22 25 31 34 38 40 37 37 43 45 42 41 38 36 35
33 31 29 27 26 25 25 25 25 25 26 25 25 25 24 24 24 24 23 22 20 20 19 19 18 18 18 19 19 20 20 20 19 19 18 19 20 19 18 17 16 16 15 14 15 12 8 8 11 12 11 10 10 10 11 11 11 11 11 11 12 12 12 12 12 12 13 13 13 14 14 16 19 23 27 31 35 38 39 41 48 52 49 44 41 38 38 38
31 30 28 27 26 26 26 26 25 25 25 25 25 24 23 23 23 23 22 21 20 19 19 20 20 19 19 20 20 20 20 19 19 19 18 18 18 18 17 16 15 14 13 13 12 9 7 7 9 10 8 7 8 9 10 10 11 11 11 12 12 12 12 12 12 12 13 14 13 14 14 15 19 25 28 32 38 42 47 54 56 53 49 44 40 39 40 41
30 29 28 27 27 26 26 25 25 25 25 24 24 23 23 23 23 22 21 21 21 20 19 20 20 19 20 20 19 19 19 19 18 18 18 17 17 17 16 15 15 13 12 12 10 7 7 7 7 7 6 7 8 8 9 9 10 10 11 12 12 12 12 12 13 13 13 13 14 15 16 18 21 26 30 34 40 47 55 59 54 49 47 44 43 43 43 42
30 29 28 28 27 27 26 25 25 25 25 25 24 24 23 23 23 22 22 22 22 21 20 20 19 19 20 19 19 19 18 17 18 17 17 17 16 16 15 15 14 13 12 11 9 6 6 7 7 6 6 7 7 7 8 8 9 10 11 12 12 12 12 12 13 13 13 14 14 16 18 22 26 28 31 35 42 49 55 55 50 46 45 45 46 46 45 43
31 30 29 29 28 28 27 27 26 26 25 24 24 23 23 22 22 22 21 21 21 21 20 20 19 19 19 19 19 18 18 17 17 17 17 16 16 15 15 15 14 12 10 11 9 7 7 7 6 6 6 6 5 5 7 8 9 10 10 12 12 12 12 12 12 13 14 14 15 18 21 25 29 30 31 35 43 50 52 50 46 45 46 48 48 45 44 44
31 31 31 30 30 29 29 28 28 27 26 25 24 23 23 22 21 21 20 20 20 20 19 19 19 18 18 18 18 17 17 17 16 17 16 16 16 15 15 14 13 12 10 10 9 8 7 6 5 5 5 5 5 5 6 7 8 9 10 12 12 12 12 12 13 13 13 14 17 20 23 26 28 30 32 36 42 47 48 48 46 47 49 48 44 40 41 44
31 31 31 31 31 30 30 29 29 28 27 26 25 24 23 22 21 20 19 19 20 19 19 19 18 18 17 17 17 17 17 16 16 16 16 16 16 15 15 13 12 12 10 8 9 8 6 5 5 5 4 4 5 6 7 7 7 9 10 11 11 11 12 12 13 13 14 16 20 23 25 27 28 29 33 37 41 45 48 50 50 50 49 43 37 36 40 44
31 31 31 31 31 31 31 31 30 29 29 28 27 26 24 23 22 20 19 20 20 20 20 19 19 18 18 18 17 16 16 15 15 15 16 15 15 15 14 13 12 10 9 8 8 7 6 5 4 4 4 5 5 6 7 6 7 8 9 10 10 11 12 13 14 14 16 18 20 23 24 26 29 30 32 36 41 46 50 55 56 50 43 37 34 37 42 45
32 32 32 32 31 31 32 31 31 30 30 29 28 27 26 24 23 21 20 20 20 21 20 20 19 19 19 19 18 17 16 15 14 14 14 14 15 14 13 11 10 9 8 8 7 7 6 4 4 4 4 4 5 6 6 6 7 7 7 8 8 10 12 13 14 15 18 18 19 21 22 26 30 31 34 38 42 47 54 58 56 46 38 37 38 41 45 47
32 32 32 32 32 32 32 31 31 30 30 30 29 29 28 26 23 22 21 21 20 21 21 20 20 20 20 20 20 19 18 17 16 14 14 14 14 13 11 10 9 8 8 7 6 6 5 4 3 4 4 4 4 5 5 5 6 6 7 7 7 9 11 13 14 14 16 17 17 19 23 26 29 33 36 39 43 51 58 55 48 41 39 42 43 45 48 51
33 33 32 32 32 32 32 31 31 30 29 29 29 29 29 27 25 24 22 22 22 22 22 22 22 22 22 22 21 20 19 18 17 15 14 13 12 11 9 9 8 7 7 7 6 5 5 4 3 4 4 4 4 4 5 6 6 7 7 8 9 10 12 13 14 14 15 16 15 20 28 30 33 36 37 41 49 56 55 48 43 43 45 48 49 50 51 53
34 34 33 33 33 32 32 31 31 30 29 29 28 28 28 27 26 25 24 23 23 23 23 24 24 24 23 23 22 20 19 18 16 15 14 13 11 9 9 8 7 7 6 6 5 4 5 4 4 4 4 5 5 5 5 5 6 7 8 9 10 10 12 13 14 14 14 15 18 25 33 35 35 36 37 45 54 55 51 48 48 48 49 51 53 53 53 52
36 35 35 34 34 33 33 32 31 30 29 28 28 27 26 26 26 26 26 25 25 25 24 24 24 24 23 22 21 20 18 16 15 14 13 12 9 8 8 7 7 6 6 5 5 5 5 5 4 5 5 5 6 5 6 5 5 6 7 8 10 11 12 12 13 13 13 18 24 26 29 32 32 34 40 47 52 53 54 54 52 51 50 49 50 49 50 50
36 36 36 36 35 34 34 34 32 31 29 28 28 28 25 24 24 24 24 25 25 24 24 23 23 23 22 22 21 19 17 14 12 12 11 9 8 7 7 7 6 6 5 5 5 5 5 6 5 5 5 5 6 6 6 5 5 6 7 8 10 12 13 12 12 13 13 16 24 27 28 30 32 37 42 45 49 54 58 58 55 52 49 48 48 48 47 48
37 37 37 37 37 36 35 34 34 33 31 29 27 28 26 24 24 24 23 23 23 23 23 23 22 22 22 22 20 19 16 12 10 10 8 8 7 6 6 6 5 5 5 5 5 6 6 6 6 5 5 6 6 6 6 5 5 6 7 8 10 12 14 15 14 14 14 14 18 25 30 32 35 40 42 44 50 56 60 61 58 53 50 50 50 49 50 52
37 37 38 38 38 37 36 36 34 33 33 31 28 27 27 25 24 23 23 23 23 23 23 22 22 22 22 21 20 18 14 10 8 8 7 7 7 6 6 6 5 5 5 5 6 6 6 6 7 6 6 7 6 5 5 5 5 6 7 8 11 13 16 17 17 16 17 17 16 21 29 34 39 42 42 47 54 57 59 60 57 54 54 54 54 55 56 58
36 36 38 38 39 38 37 37 35 33 33 32 31 28 26 25 23 22 22 22 23 23 23 23 23 23 22 21 19 16 12 8 7 7 7 6 6 6 6 5 5 5 5 5 6 6 7 7 7 6 6 7 6 5 6 5 6 6 8 9 11 14 15 16 18 18 18 21 23 25 31 36 38 41 45 52 59 59 58 57 54 54 54 55 59 62 60 58
33 35 37 37 38 39 38 37 36 35 33 32 32 30 28 26 23 22 21 20 21 21 23 24 24 23 22 20 18 15 11 8 7 7 7 7 6 6 6 5 5 5 5 5 5 6 7 7 7 7 7 7 7 6 6 6 6 6 7 9 12 15 16 15 18 21 21 23 26 28 35 38 38 43 51 57 62 63 61 57 53 53 55 58 61 61 57 55
30 33 36 37 37 38 38 38 36 35 34 32 32 31 30 28 25 23 21 19 18 19 21 23 24 22 21 19 17 14 10 8 7 7 7 7 6 6 6 5 5 5 5 5 5 5 5 5 7 7 7 7 7 6 6 5 6 8 9 11 12 14 16 16 18 20 21 22 21 24 35 43 46 52 58 60 65 69 67 64 61 60 62 63 60 57 56 56
30 32 35 36 36 36 38 38 36 35 35 34 33 31 30 28 26 24 21 18 17 17 19 22 23 22 21 19 16 13 9 8 8 7 7 7 6 6 6 5 5 5 5 5 5 4 4 4 4 5 6 6 6 5 6 5 6 9 11 11 12 14 15 16 18 19 20 21 18 17 28 43 52 58 62 64 70 74 73 72 70 65 63 61 58 56 58 60
28 30 32 34 35 35 37 36 35 34 34 35 34 32 30 27 25 23 20 17 16 16 19 22 22 21 19 17 14 11 9 8 8 8 7 7 6 6 5 5 5 5 4 4 4 4 4 3 3 3 3 4 4 4 5 6 7 9 10 10 12 13 15 17 17 17 19 21 20 18 22 34 44 52 58 63 68 69 69 71 71 65 61 59 58 58 61 64
27 28 30 31 32 32 33 33 33 34 34 34 32 30 27 25 23 21 18 16 15 16 18 20 20 19 17 14 12 10 9 9 8 7 7 6 6 5 5 4 4 4 3 4 4 4 4 4 3 3 3 4 4 5 5 6 7 9 10 11 13 15 16 17 17 18 18 20 27 28 22 22 32 42 49 54 58 58 59 64 68 66 62 61 61 63 67 69
27 28 29 29 30 30 31 32 33 33 32 30 27 25 23 21 20 18 15 15 15 15 16 17 16 15 14 11 10 9 9 8 7 7 6 5 5 4 4 3 3 3 3 3 4 4 5 6 5 5 5 6 7 7 8 8 9 10 11 13 15 16 17 17 18 20 19 19 26 31 26 22 28 38 46 49 51 54 58 63 68 69 68 69 69 70 72 73
26 27 28 29 30 30 31 31 30 28 25 23 21 19 18 17 16 14 14 14 15 14 14 14 13 12 11 10 9 8 7 7 6 5 5 4 4 3 3 3 3 2 2 3 3 3 4 6 7 7 6 6 7 8 9 9 9 11 12 13 15 16 17 19 18 19 20 19 19 24 28 28 28 37 50 52 50 55 62 68 74 79 80 81 79 75 73 75
22 22 22 24 25 25 25 24 23 21 18 16 15 14 14 13 12 12 13 13 13 13 13 12 10 9 8 7 7 6 6 5 5 4 4 3 3 3 2 2 2 2 2 2 2 3 3 4 5 7 7 6 6 8 9 9 10 11 12 13 15 15 17 19 19 18 20 21 18 18 24 29 29 36 51 57 57 61 67 72 81 87 89 89 85 77 73 74
18 17 16 16 16 16 16 15 14 13 12 11 10 10 10 10 10 10 11 11 11 10 10 9 8 7 6 5 5 4 4 4 3 3 3 3 3 2 2 2 2 2 2 2 2 2 3 2 3 5 7 6 6 8 9 8 9 11 12 13 14 15 16 19 20 19 18 20 20 17 19 26 29 34 47 60 66 69 72 76 83 88 90 92 91 84 78 76
15 14 13 12 12 12 11 10 9 9 8 7 7 7 7 7 7 8 8 8 8 7 6 6 5 4 4 4 3 3 3 3 3 3 2 3 2 2 2 2 2 2 2 2 2 2 2 2 2 3 5 5 5 7 7 7 8 10 11 10 12 14 17 19 20 20 19 19 20 19 18 21 25 30 43 60 69 70 71 75 80 86 91 94 96 93 87 83
13 12 12 11 10 10 9 9 8 7 6 6 5 5 5 5 5 5 5 5 5 5 4 3 3 3 3 3 3 3 3 2 3 2 2 2 2 2 2 2 2 2 2 2 2 2 2 2 2 2 3 3 4 5 5 6 7 9 9 9 11 14 16 19 21 21 21 20 19 20 19 20 23 27 37 55 67 68 68 71 77 85 92 94 95 95 93 93
12 11 11 11 10 9 8 7 6 6 5 5 5 4 4 4 4 4 4 4 3 3 3 3 3 3 3 3 3 3 3 2 2 2 2 2 2 2 2 2 2 2 2 2 2 2 2 2 2 2 2 3 3 4 5 6 6 7 8 10 12 13 14 18 21 22 22 21 19 19 19 20 23 27 34 50 64 68 69 73 78 86 92 92 94 96 96 98
Wind_Speed
18 18 19 19 20 20 21 21 21 20 20 21 21 20 19 18 19 20 21 21 20 19 19 19 18 18 18 18 18 21 23 24 28 32 34 35 34 32 30 28 26 24 23 22 21 20 20 19 18 17 16 14 14 13 13 12 11 11 11 10 10 11 13 14 14 15 15 15 15 16 16 17 18 19 20 22 23 25 26 27 28 29 31 34 37 41 44 46
22 22 22 23 24 25 25 25 24 24 24 23 22 22 23 24 24 24 23 22 22 21 21 21 20 20 19 20 21 24 25 25 30 34 33 33 33 32 31 29 27 26 24 23 22 21 19 18 17 16 15 15 14 14 13 13 13 12 11 11 12 13 14 15 15 15 15 16 16 17 18 19 21 22 24 25 26 27 28 29 31 34 37 39 41 43 44 45
25 25 25 26 27 27 27 27 27 26 26 26 26 27 27 27 26 25 24 24 23 23 22 21 21 21 21 22 23 25 26 27 30 32 31 31 31 30 29 28 27 25 23 22 21 20 18 17 16 16 16 16 15 15 14 14 14 13 13 13 14 14 15 15 16 16 16 17 18 20 21 23 24 25 26 27 28 29 30 31 34 36 38 39 40 41 42 44
28 28 28 29 29 29 29 29 29 29 29 30 30 29 28 28 27 26 26 25 24 23 23 23 23 23 23 24 24 25 27 27 28 29 28 29 29 28 27 26 25 24 22 21 20 18 17 16 16 17 17 17 16 15 15 15 14 14 15 14 15 16 16 17 17 18 19 20 22 24 25 25 25 26 27 27 28 29 30 32 34 35 37 38 40 41 43 45
31 31 31 31 31 31 31 32 32 32 32 32 31 30 29 29 28 28 27 26 25 24 24 24 24 24 24 24 24 26 27 25 26 26 26 26 26 25 25 24 23 22 21 21 19 18 17 17 18 19 18 17 17 17 17 17 16 17 17 17 18 19 19 19 20 21 22 23 24 25 26 25 25 27 27 27 28 30 32 33 34 36 37 39 41 43 45 46
33 33 33 33 33 33 34 34 34 33 33 32 31 31 30 30 29 28 27 26 25 25 25 24 24 24 24 24 24 25 25 24 24 24 24 24 23 23 22 22 22 21 21 20 19 18 18 18 19 19 19 19 20 20 20 19 20 19 19 19 20 20 21 21 22 22 22 23 24 25 26 26 26 27 28 29 30 31 32 33 35 37 39 41 43 44 45 45
34 34 34 35 35 35 35 35 34 34 33 33 32 31 31 30 29 28 27 26 26 26 25 24 24 23 23 23 23 23 23 23 23 22 22 22 22 22 22 21 21 21 21 20 19 18 19 21 22 21 21 22 23 23 22 22 22 21 21 20 20 21 21 22 22 23 22 23 24 24 26 26 26 28 29 30 31 32 33 34 36 38 40 42 44 44 45 46
36 36 37 37 37 36 36 35 35 34 33 33 32 31 30 29 28 28 27 26 26 25 24 24 22 21 22 23 22 21 22 22 22 21 21 22 22 22 22 21 21 22 22 21 20 20 22 24 24 24 24 24 23 23 23 23 22 22 22 21 21 21 21 21 22 22 21 22 23 24 26 27 27 28 29 30 31 32 33 35 37 39 41 43 44 45 46 46
38 38 37 37 37 36 36 35 34 34 33 32 31 30 29 29 28 28 27 26 25 24 24 23 21 20 22 22 21 22 22 21 21 21 21 21 22 23 23 23 24 25 24 24 23 24 25 26 26 25 25 24 24 24 23 23 23 22 22 22 21 21 21 22 22 23 22 22 23 24 26 28 28 29 30 31 32 33 34 36 38 39 41 43 45 45 46 47
37 37 36 36 36 35 35 34 34 33 32 32 31 30 30 29 28 27 27 26 25 25 24 22 21 22 23 24 24 24 23 22 23 23 24 25 26 27 27 28 28 28 27 26 26 27 27 27 27 26 25 25 25 24 24 23 23 23 23 22 22 22 22 22 23 24 23 23 24 25 27 28 28 29 30 31 32 34 35 36 38 40 42 43 44 45 46 47
36 36 36 36 35 35 35 34 34 33 33 32 31 30 29 28 27 27 26 26 26 26 24 23 23 24 26 29 28 27 27 28 28 29 30 31 31 31 31 31 31 29 28 28 28 28 28 28 27 26 26 26 25 25 24 23 23 23 23 23 23 23 23 24 24 25 24 24 25 26 28 28 29 29 30 32 33 34 35 37 39 40 42 43 44 46 47 48
36 36 36 36 36 35 35 35 34 33 32 31 30 29 28 28 27 27 27 27 26 25 24 24 25 28 32 33 30 31 33 33 34 35 35 35 34 33 33 32 31 30 29 28 28 27 27 28 27 27 26 26 25 25 25 24 24 24 24 24 25 24 24 25 26 26 25 25 25 26 27 28 29 30 31 32 33 34 36 37 39 41 42 43 44 46 48 50
36 36 36 36 36 36 35 35 34 33 32 31 30 29 28 28 28 27 27 26 26 26 27 28 30 34 35 31 32 35 36 36 36 37 37 36 35 34 33 32 31 30 28 27 27 26 27 28 27 27 26 26 26 26 25 25 25 25 25 25 25 25 26 27 27 27 26 25 26 28 28 29 30 31 32 33 34 35 36 38 40 41 42 43 44 46 48 50
37 37 37 36 36 35 35 34 33 33 32 31 30 29 29 28 27 27 26 26 27 28 31 33 34 35 32 31 35 37 37 37 37 37 37 37 36 34 33 31 30 29 28 27 27 27 28 28 27 27 26 26 26 26 26 26 25 25 25 25 26 27 28 29 29 28 28 27 28 29 30 30 31 31 32 33 34 36 37 39 41 42 43 44 46 47 49 52
37 37 36 36 36 35 35 34 34 33 32 31 30 29 28 28 27 27 27 29 30 32 36 37 35 33 32 35 38 37 38 38 37 36 36 36 35 34 32 30 29 28 28 28 28 29 29 28 28 28 26 26 26 26 26 26 26 26 26 27 28 30 31 30 31 31 30 30 31 31 31 31 31 31 32 34 36 37 38 40 41 42 43 45 46 48 51 53
37 37 37 36 36 36 35 35 34 33 32 31 30 29 29 29 30 30 31 32 33 36 39 38 36 34 35 38 39 38 38 36 35 34 34 34 33 32 31 29 29 28 28 29 29 29 29 29 28 27 26 26 26 26 26 27 27 28 28 29 30 31 32 32 32 33 32 31 32 32 32 32 32 32 33 35 37 38 39 41 42 43 44 45 47 49 52 54
37 37 36 36 36 36 35 35 34 33 32 31 31 31 31 32 33 33 34 35 36 38 39 39 37 35 37 39 38 37 36 35 34 33 32 33 31 31 31 30 29 28 28 29 29 30 30 29 28 26 26 27 27 26 27 29 30 30 30 30 31 32 34 34 34 35 34 33 33 33 32 32 33 33 34 36 37 39 41 42 43 44 45 46 48 50 52 55
36 36 35 35 35 35 35 34 34 33 33 33 33 34 34 35 36 36 37 37 37 37 39 40 36 35 38 39 36 35 34 33 33 32 32 32 31 30 31 30 29 28 27 29 29 30 31 29 26 26 27 28 28 29 30 31 31 31 30 31 32 34 36 37 37 37 36 35 35 33 33 33 33 34 35 36 38 40 42 43 44 44 45 47 49 51 53 55
35 35 35 35 35 34 34 34 34 35 36 36 35 35 37 38 38 38 38 38 37 37 38 38 35 36 38 37 35 35 33 32 32 32 32 33 31 30 31 30 30 29 28 28 28 30 31 28 26 27 28 30 31 31 32 32 32 32 32 32 34 35 37 38 38 38 38 36 36 35 34 33 34 35 35 37 38 41 43 43 44 45 46 47 50 51 54 56
34 35 35 35 34 33 34 34 35 36 37 38 37 36 38 39 39 38 38 37 36 36 37 36 35 36 36 36 36 35 32 32 32 32 34 35 32 29 31 31 31 30 29 28 28 31 31 26 26 28 30 31 32 33 33 33 33 34 34 34 35 36 37 39 39 39 38 37 37 36 34 34 35 35 36 38 39 41 43 43 44 46 46 48 50 52 54 56
34 35 34 34 33 33 34 35 36 37 37 38 38 37 38 40 39 38 35 33 35 36 36 35 35 35 35 35 35 34 33 33 32 33 34 35 33 30 31 32 32 30 29 28 31 32 27 23 27 30 31 32 33 34 35 35 35 35 36 36 36 38 39 40 40 40 39 38 37 37 35 35 36 37 38 39 40 41 43 44 44 45 47 49 51 52 54 57
34 34 34 33 33 33 34 35 36 37 37 38 39 38 38 39 37 35 33 33 35 35 35 35 35 35 35 34 34 34 35 34 33 34 34 35 33 30 31 31 30 29 29 29 31 28 22 24 30 31 32 33 34 35 36 36 36 36 37 38 38 39 40 41 42 41 41 41 40 39 38 36 36 39 40 41 41 42 44 45 45 47 49 50 51 53 55 57
34 34 33 33 33 34 34 35 36 37 37 37 37 37 37 36 35 34 33 34 35 35 35 35 35 35 34 33 33 34 35 34 33 33 32 33 32 29 29 28 28 28 29 29 26 22 22 29 32 32 33 34 34 36 36 37 37 38 39 40 40 41 41 42 43 43 43 43 42 41 40 38 38 41 42 42 43 44 45 47 48 49 50 50 51 53 56 58
33 33 33 33 34 34 34 35 35 36 36 36 36 36 36 35 34 34 33 34 35 35 36 35 34 34 33 33 33 33 33 32 32 31 30 31 30 28 27 27 27 28 28 27 23 21 26 31 32 32 33 34 35 37 36 37 38 39 40 40 41 41 42 44 44 44 43 43 44 43 42 43 43 42 43 43 45 47 48 50 50 51 51 51 52 54 56 58
32 32 33 33 34 33 33 34 34 34 35 35 35 35 35 34 34 34 34 34 35 35 36 34 33 33 32 31 31 31 31 31 30 29 29 29 29 28 27 26 27 27 27 26 23 25 30 32 33 33 34 36 38 37 37 37 38 39 40 41 41 42 43 45 45 45 45 44 45 46 46 48 46 43 44 45 47 49 50 50 51 50 51 52 54 55 57 59
32 32 32 32 32 32 32 32 32 33 33 33 34 33 33 33 33 33 33 35 34 33 34 32 30 32 31 29 29 29 29 29 27 28 28 28 28 28 27 26 26 26 26 25 25 28 31 33 33 35 37 39 38 37 38 39 39 40 41 41 42 42 43 45 46 46 47 47 47 48 50 49 47 45 45 47 49 50 49 49 50 51 51 53 55 56 57 59
31 31 31 31 31 31 31 31 31 31 31 31 32 31 31 31 31 31 33 35 33 30 32 30 28 31 29 27 28 27 26 26 26 27 27 27 27 27 26 25 25 24 25 26 27 29 32 33 35 37 39 39 38 39 40 40 40 41 41 42 42 42 44 46 47 47 49 50 50 50 50 47 46 47 48 49 49 49 48 49 50 52 53 55 56 56 57 59
30 29 29 29 29 29 29 29 30 29 29 29 29 29 29 29 29 29 30 32 31 28 30 28 27 29 28 27 26 25 24 24 25 26 26 26 26 25 25 24 23 24 25 27 28 30 32 34 36 37 37 37 37 40 41 41 41 42 42 42 41 42 45 47 49 50 51 52 52 51 48 45 45 48 49 49 49 48 48 50 52 54 55 56 56 57 58 59
28 27 27 27 27 27 27 27 27 27 27 27 27 27 27 27 27 27 28 29 28 27 27 27 26 26 27 26 24 23 23 23 25 25 24 25 24 23 23 22 23 24 25 27 29 31 33 34 35 35 35 36 39 40 40 41 42 42 42 42 42 44 47 48 50 51 52 53 52 49 48 47 48 50 50 49 49 48 50 52 54 55 56 56 57 58 59 60
26 26 26 26 26 26 26 26 26 25 25 25 25 25 24 24 24 25 27 28 27 26 26 25 25 25 25 24 23 23 22 22 23 24 24 23 22 21 21 21 23 24 25 27 30 32 33 33 33 33 36 38 39 40 40 41 42 42 43 43 44 47 48 49 50 51 52 52 51 49 49 51 51 51 50 50 50 50 52 53 55 56 56 57 59 59 60 60
24 24 24 24 24 25 25 24 24 24 24 23 23 22 22 22 21 22 25 25 25 25 24 24 23 23 23 23 22 22 22 22 23 23 23 23 22 21 21 21 23 24 25 28 30 31 31 31 32 35 37 38 39 39 39 41 42 42 44 44 46 48 49 50 52 52 51 50 51 51 52 53 52 52 51 50 51 52 53 54 55 56 57 58 60 61 61 61
22 22 22 22 23 23 23 23 23 23 22 22 21 20 19 19 19 20 21 22 23 23 22 22 21 21 21 21 21 21 22 23 23 22 22 22 22 20 20 21 23 24 26 28 29 30 30 31 33 35 36 37 38 39 40 42 43 43 45 47 49 51 52 52 52 51 49 50 52 54 54 53 52 51 51 51 52 53 53 54 55 57 58 60 62 62 62 63
21 20 19 19 19 20 21 21 22 21 21 20 20 18 17 15 17 19 19 19 21 20 19 19 19 19 20 19 20 21 21 22 22 21 21 21 20 19 19 21 22 24 26 28 29 30 30 31 33 35 36 37 39 40 42 44 44 45 47 50 52 54 54 52 51 50 50 52 54 55 55 54 53 52 52 52 53 54 53 54 55 57 60 61 63 63 63 64
19 18 17 16 16 17 17 18 19 20 20 19 18 18 15 13 16 17 17 18 18 17 17 17 17 17 17 18 19 19 20 20 20 20 20 19 18 19 20 21 23 24 26 28 29 30 31 32 34 35 36 38 40 42 43 44 45 47 49 51 53 54 54 53 52 52 51 52 55 55 54 55 54 53 53 54 54 54 54 55 56 58 61 62 63 64 65 65
17 16 15 14 14 14 14 15 16 16 17 17 17 16 13 12 14 15 15 15 15 15 15 15 15 15 16 17 18 18 19 19 19 20 19 18 18 19 21 22 23 25 26 27 29 30 32 33 34 36 37 39 41 42 43 44 46 48 49 51 52 52 52 53 53 53 53 53 56 55 53 54 55 53 54 55 54 55 57 59 60 61 61 62 63 65 66 67
14 13 13 12 11 11 11 12 13 13 14 15 16 14 12 11 12 12 13 13 13 13 13 13 14 14 15 16 17 18 19 19 19 19 18 17 18 19 21 22 24 25 26 28 29 30 32 34 34 36 38 40 42 43 43 45 47 48 49 51 51 51 51 52 53 55 55 54 54 54 54 55 55 54 54 54 54 57 59 61 62 62 62 63 64 66 67 68
12 11 10 10 9 9 9 9 9 10 10 11 13 13 10 10 10 10 11 11 11 11 12 12 13 13 14 15 16 18 19 19 19 18 17 18 18 20 21 22 23 24 26 27 29 30 32 33 34 36 38 40 41 43 44 45 47 48 49 50 50 50 51 53 54 55 56 55 53 54 56 56 56 55 54 55 57 58 60 61 62 62 63 64 66 67 68 69
11 10 9 8 7 6 6 6 6 7 7 7 9 10 9 8 8 9 9 9 9 10 10 11 11 12 14 15 16 18 19 19 19 18 18 18 19 20 21 22 23 24 26 27 29 30 31 33 35 36 38 40 41 43 44 45 47 48 49 50 50 51 53 54 55 56 57 56 55 54 55 57 57 56 56 57 59 59 61 62 63 63 64 66 67 69 70 71
10 10 9 7 6 5 4 2 3 4 5 5 6 8 8 7 7 8 8 8 8 9 10 10 11 12 14 15 16 17 17 18 18 18 18 19 19 20 20 21 23 24 26 27 28 30 32 33 35 37 38 40 41 43 45 46 47 48 49 50 51 53 54 54 55 57 57 57 56 55 56 57 58 57 58 59 60 61 63 63 64 65 66 67 69 71 72 72
10 10 9 8 6 5 4 1 2 2 2 4 5 5 6 7 7 8 8 8 8 9 9 10 11 12 13 14 15 16 16 17 18 18 18 18 19 19 20 22 23 25 26 27 29 30 32 34 35 37 38 40 42 44 45 46 47 48 49 50 51 52 53 54 55 56 57 56 56 56 57 58 58 58 58 59 60 63 64 65 66 66 67 68 70 72 73 74
11 11 10 9 7 6 6 4 3 2 1 2 4 5 6 7 7 8 9 9 9 9 10 10 11 12 13 13 14 15 15 16 17 17 17 18 18 19 21 22 24 25 27 28 29 31 32 34 36 37 38 40 42 43 44 45 47 48 49 50 51 52 53 55 54 54 56 56 55 56 57 58 59 59 59 59 61 63 65 66 67 68 69 70 70 72 74 75
11 11 11 10 9 8 8 6 5 5 4 4 4 5 6 7 7 8 9 10 10 10 10 11 11 11 12 13 13 14 15 15 16 16 17 17 18 20 22 23 24 26 27 29 30 31 33 34 35 37 38 39 41 42 44 45 46 48 49 50 51 52 54 55 54 53 54 55 57 57 58 58 60 60 60 61 62 64 66 68 69 71 71 71 71 73 75 76
11 11 11 11 10 10 9 8 8 7 6 6 6 6 7 8 8 8 9 10 10 10 10 10 10 11 11 12 13 13 14 14 15 16 17 18 19 21 23 24 25 27 29 30 32 33 34 35 35 36 38 39 41 42 43 45 46 48 49 50 51 52 53 54 54 54 54 55 58 59 57 56 58 60 61 62 64 65 68 70 71 71 71 71 72 73 75 76
10 11 11 11 11 11 10 9 9 8 8 8 7 7 7 8 8 9 9 10 10 10 10 9 10 10 11 11 12 13 13 14 15 16 17 19 20 22 23 25 26 28 30 31 32 34 35 36 36 37 37 38 40 42 43 45 47 48 49 50 51 51 52 53 54 55 54 54 57 58 57 55 57 58 60 61 63 64 66 69 70 71 72 72 72 73 74 76
9 10 10 10 10 10 10 9 9 8 8 8 8 8 8 8 9 9 9 9 10 9 9 9 9 10 10 11 12 12 13 14 16 17 18 19 20 22 24 25 27 28 30 31 32 34 35 36 38 39 40 40 42 44 45 46 47 48 48 49 50 51 52 53 54 55 55 55 54 55 57 57 57 57 58 59 61 63 65 68 70 71 73 73 73 74 74 76
8 8 8 8 8 9 9 9 8 8 8 8 8 8 8 8 9 9 9 9 9 9 9 9 10 10 10 11 12 13 14 15 16 17 18 19 21 22 24 25 27 28 29 30 31 33 35 36 38 39 41 42 43 44 45 46 47 47 48 48 49 50 52 53 54 54 55 56 54 54 57 59 58 58 59 60 61 63 65 68 70 72 74 74 75 75 75 76
8 8 8 8 8 8 8 8 8 8 8 9 9 9 9 9 9 9 9 9 9 9 9 10 11 11 12 13 14 14 15 16 17 17 18 20 21 23 24 25 26 27 28 30 31 32 34 36 37 39 40 41 42 43 44 45 46 47 48 48 48 49 51 53 54 54 55 56 56 55 57 58 59 59 60 62 63 63 65 68 70 73 75 76 76 75 75 75
9 8 8 9 9 8 8 8 8 8 9 9 9 10 9 9 9 9 9 9 9 9 10 11 12 13 13 14 15 15 16 16 17 18 19 20 21 23 24 25 26 27 29 30 31 33 34 36 37 38 40 41 42 43 44 45 45 46 47 48 47 48 50 52 54 55 55 55 57 58 57 58 60 60 60 62 64 65 67 69 70 73 74 76 76 76 76 76
10 9 9 9 9 9 9 9 9 9 9 10 10 10 10 10 10 10 10 10 10 10 11 12 12 13 14 14 15 15 16 17 17 18 20 21 21 23 24 26 27 28 29 31 32 33 35 36 37 38 39 41 42 42 43 43 44 45 46 48 48 48 50 51 53 56 55 55 57 59 59 58 59 60 61 62 63 65 67 69 70 72 74 75 76 77 77 76
12 11 11 10 10 10 10 10 9 10 10 10 10 10 10 10 10 10 10 10 10 10 11 12 12 13 13 14 15 15 16 17 18 19 20 21 22 23 25 26 28 29 30 32 33 34 35 36 37 38 39 40 41 42 43 43 43 44 46 48 49 49 49 50 53 55 55 55 56 58 59 59 59 60 61 61 62 64 66 68 69 71 74 76 77 77 77 77
14 14 13 12 12 11 11 11 11 11 11 11 10 10 10 10 10 10 10 10 10 11 11 11 12 12 13 14 15 16 17 17 18 19 21 22 23 24 25 27 28 29 31 32 33 34 35 36 37 38 38 40 41 43 44 44 44 44 46 48 49 49 49 50 51 53 55 56 56 57 59 59 59 60 61 61 61 63 65 67 68 71 74 76 78 78 78 77
17 16 15 15 14 14 13 12 12 12 12 11 11 11 11 11 10 10 10 11 11 11 11 12 13 13 14 15 16 17 18 19 19 20 22 23 24 25 26 27 29 30 31 32 34 35 36 36 38 39 39 40 42 44 44 44 44 45 46 47 48 49 50 49 50 51 54 56 57 57 59 59 59 60 61 61 61 63 65 67 68 71 74 77 79 80 79 77
Wind_Direction
117 114 112 110 108 107 109 114 120 122 122 122 121 121 119 116 113 111 108 106 102 100 97 94 92 90 88 87 85 83 79 76 78 81 82 86 91 96 101 105 107 107 105 104 101 98 96 95 94 92 89 86 81 76 70 62 55 49 41 28 21 19 15 15 10 6 3 0 357 353 350 348 347 347 347 348 347 346 346 345 342 340 339 339 339 339 339 337
113 113 112 111 110 109 110 113 116 117 118 118 118 116 113 112 110 108 106 103 101 99 97 96 95 93 91 88 83 80 79 80 82 82 84 87 91 94 97 99 100 101 100 100 98 97 96 95 93 90 87 82 76 70 66 59 51 46 39 27 24 22 19 17 12 9 7 4 1 357 355 356 355 354 354 353 351 350 348 345 342 341 340 339 339 338 334 329
110 110 109 109 109 110 111 113 114 114 115 115 114 113 111 110 108 106 104 102 100 99 98 96 95 93 91 88 84 83 83 82 82 82 85 88 89 91 94 95 96 97 97 97 96 96 95 92 87 84 79 74 69 65 60 55 49 45 40 32 30 27 23 21 16 12 9 6 4 2 2 1 359 357 356 354 351 348 345 343 342 340 338 337 335 331 326 324
106 106 106 107 108 109 110 112 112 113 114 113 112 111 110 107 105 104 103 101 100 98 97 95 94 92 90 88 87 86 83 81 82 83 85 87 89 91 92 93 94 95 94 93 92 90 88 84 79 76 72 69 68 65 61 56 51 48 44 39 35 31 27 24 19 14 12 9 6 4 1 359 357 355 353 349 345 342 341 341 339 336 335 333 329 326 325 326
105 106 107 108 109 110 111 112 112 112 112 111 110 108 106 105 104 103 102 100 98 97 96 95 93 91 90 89 88 86 84 85 85 85 85 86 88 88 89 89 90 90 88 87 86 83 80 78 75 73 72 71 70 67 64 59 55 52 47 42 36 31 28 23 19 15 13 9 5 1 358 354 352 349 346 342 339 339 339 337 334 332 331 328 327 326 327 327
106 107 108 108 109 110 110 111 110 110 109 108 106 105 104 104 103 102 100 99 98 97 95 93 91 90 89 89 86 85 87 89 87 87 87 87 87 87 87 85 85 85 84 83 83 82 80 78 77 75 74 72 70 66 64 60 56 52 47 41 35 30 25 21 15 11 9 5 1 357 354 350 346 344 341 337 337 338 336 332 330 329 328 326 326 326 326 327
106 107 108 108 109 109 109 108 107 107 105 104 104 103 103 102 101 100 99 97 96 94 92 91 90 89 88 87 85 86 88 88 87 88 89 89 89 88 88 87 86 85 83 81 80 81 81 80 79 77 75 71 68 64 62 58 52 49 44 38 32 27 22 17 12 7 3 0 357 353 350 346 342 340 337 335 336 335 332 330 329 327 326 325 325 326 327 327
106 107 107 107 106 106 105 105 104 103 102 102 102 102 102 101 100 98 97 95 93 91 90 89 87 88 89 88 89 90 89 88 89 90 90 90 89 89 90 89 87 84 81 78 78 79 80 79 77 75 73 69 65 61 56 53 48 44 39 33 28 23 18 13 9 5 1 357 353 349 347 344 341 337 336 336 335 333 331 329 327 325 324 324 326 327 328 327
105 104 104 104 103 102 101 101 101 101 101 101 101 101 100 99 98 96 95 93 91 90 88 87 88 90 90 89 90 90 89 91 93 93 93 93 92 90 88 86 82 80 80 79 80 81 79 77 74 71 68 63 59 55 51 48 44 39 35 30 25 21 16 12 8 5 2 357 352 348 346 343 340 338 337 336 334 332 331 329 326 324 325 326 327 327 328 327
102 102 101 100 100 100 99 99 100 100 100 100 100 99 98 97 96 95 94 92 91 88 87 89 90 89 88 88 89 89 91 94 95 94 93 92 90 87 84 82 81 80 80 81 81 79 76 73 69 66 62 58 55 52 48 45 42 37 34 28 24 21 16 12 8 5 3 358 353 349 346 344 341 339 337 336 334 333 331 327 325 325 326 327 327 327 327 327
100 100 100 99 100 100 100 100 100 100 100 99 98 97 96 95 94 93 93 92 92 91 91 90 88 87 87 86 88 90 92 93 93 91 89 87 85 84 83 81 81 81 81 80 77 74 71 67 64 61 58 55 52 50 47 44 41 36 32 28 23 20 16 12 9 6 3 358 354 349 345 343 341 340 338 337 335 333 329 327 326 327 328 328 328 327 327 327
100 100 100 101 101 101 101 101 101 100 99 98 96 95 94 93 93 94 94 95 95 93 91 89 89 86 83 85 90 92 90 90 89 87 86 84 83 82 83 82 81 80 78 75 72 68 65 62 60 58 55 52 49 47 44 41 38 34 30 26 22 19 15 13 10 7 4 358 354 350 346 343 342 342 340 338 335 332 330 328 328 328 329 328 328 328 328 328
101 102 102 102 102 102 101 100 99 98 97 95 94 93 93 94 95 96 97 97 95 94 93 92 87 81 82 89 92 91 89 87 86 86 85 84 83 82 82 82 80 77 73 70 66 63 62 59 57 56 53 49 47 43 40 38 35 32 29 24 20 17 15 13 11 7 4 359 355 352 348 347 345 343 341 338 335 333 332 330 330 330 329 329 329 329 329 328
103 103 102 102 101 100 99 98 97 96 95 95 95 95 96 97 97 97 98 97 97 97 94 89 83 82 90 94 91 90 90 88 87 86 87 86 84 82 79 77 76 74 70 65 62 61 60 57 55 53 49 46 45 41 38 37 34 31 29 26 22 20 17 15 12 8 5 2 359 354 352 350 347 344 341 338 336 335 334 333 332 331 331 330 330 330 329 330
103 103 102 101 99 98 97 97 97 97 97 97 98 98 99 98 98 98 98 99 99 96 91 89 89 92 97 94 90 92 91 89 89 88 87 86 84 81 77 73 70 69 67 64 61 59 58 55 53 50 47 44 44 41 38 37 36 33 30 28 25 22 19 16 13 10 8 5 1 357 354 351 347 344 342 340 338 337 336 334 333 332 332 332 331 331 332 333
102 101 100 99 99 98 98 99 99 99 99 99 99 99 99 98 98 99 99 99 97 95 93 95 97 99 98 94 92 92 91 91 90 88 86 84 82 80 76 71 67 65 65 65 62 60 57 54 50 48 46 44 43 42 38 37 36 33 31 28 26 22 19 17 14 13 10 6 2 357 354 351 348 346 344 342 340 338 337 335 334 334 333 333 332 333 334 333
101 100 100 100 100 100 101 101 101 100 100 99 99 99 100 99 100 99 99 98 97 97 98 99 100 100 98 93 91 91 92 92 90 88 86 83 80 78 75 71 68 64 63 64 62 60 56 51 49 46 44 43 41 39 36 35 34 31 30 28 25 23 21 18 16 14 11 8 3 358 355 352 350 348 345 343 341 339 338 337 336 335 334 334 335 334 334 334
100 100 100 101 101 102 101 101 101 101 100 99 100 101 101 101 100 99 99 99 98 99 100 99 100 99 95 93 93 92 90 89 88 86 84 80 77 76 74 71 69 66 62 62 59 58 55 48 45 44 42 41 38 36 35 34 32 29 29 27 25 23 21 19 17 14 12 9 4 360 357 354 351 349 347 345 343 340 339 338 336 336 337 336 336 335 335 335
99 100 101 101 101 101 100 101 101 102 102 102 102 102 103 102 101 101 100 99 99 99 98 98 98 97 95 94 92 89 87 88 86 85 83 79 76 75 75 72 70 67 62 59 56 55 53 45 42 42 41 40 37 36 35 33 30 28 27 26 24 22 20 19 17 15 12 9 5 2 359 355 352 351 349 347 345 341 339 338 337 338 339 338 336 336 335 336
101 102 102 101 100 100 100 101 101 102 103 104 103 104 104 103 102 101 99 98 99 99 98 97 97 95 93 91 88 84 83 83 81 81 81 78 74 74 76 72 68 64 59 55 52 50 49 43 40 40 39 38 36 35 33 31 28 27 26 25 23 22 20 19 17 15 13 9 6 3 359 355 353 352 351 350 347 342 339 340 340 339 340 339 338 337 337 339
103 103 103 101 100 100 101 102 103 104 104 103 104 103 102 101 99 97 97 99 99 97 96 95 93 90 88 86 85 81 78 76 75 76 76 74 71 69 69 66 61 58 55 50 47 46 46 42 39 38 36 36 34 32 31 28 27 25 25 24 22 21 20 18 17 15 13 10 7 4 2 359 355 354 354 352 347 343 341 342 343 342 342 340 338 337 339 341
105 104 102 101 101 102 103 105 106 105 104 103 102 100 98 97 97 98 99 99 97 94 93 91 88 86 83 82 82 79 75 72 71 72 72 71 67 63 63 63 59 57 53 48 46 45 43 40 38 36 34 33 31 29 28 26 24 24 23 22 21 20 19 18 17 15 13 11 9 6 6 3 357 357 357 352 348 347 344 345 347 346 343 340 339 339 341 343
105 104 103 103 104 105 106 107 106 104 103 101 101 100 99 99 100 100 99 97 94 92 90 88 86 84 81 79 78 76 73 71 70 69 69 69 67 63 62 62 60 57 53 49 46 41 38 40 38 34 33 31 28 27 25 23 22 21 21 20 19 19 18 17 17 16 14 11 10 8 6 6 4 1 358 352 350 349 348 348 349 346 342 341 340 341 342 344
105 105 105 106 106 107 107 106 104 103 102 101 101 101 101 101 100 99 96 94 92 89 87 84 83 81 79 76 75 74 74 72 70 69 67 68 68 64 60 58 58 57 54 48 41 34 36 39 37 33 32 30 28 26 23 22 21 19 19 18 18 18 17 16 15 16 15 12 11 9 7 9 9 2 357 353 351 351 352 351 348 344 342 342 342 343 344 344
106 106 106 107 107 106 105 103 103 102 102 102 101 100 100 99 97 96 94 91 88 86 84 82 81 80 78 76 75 74 74 72 70 69 66 65 64 62 56 53 52 51 50 43 33 31 35 36 34 31 30 29 26 24 22 21 20 18 18 17 17 17 16 15 14 14 15 13 12 10 9 10 10 3 357 355 354 354 353 349 345 344 344 344 344 344 345 345
107 106 107 107 106 104 102 100 100 99 99 99 98 98 97 96 95 94 92 88 86 85 85 83 82 82 78 77 76 73 73 72 69 67 64 60 59 57 52 47 45 44 45 40 30 30 34 33 31 28 27 27 24 22 21 19 19 18 17 16 16 16 15 15 13 13 14 14 13 12 10 9 7 3 358 357 356 355 352 347 345 347 347 346 345 345 345 345
108 107 107 106 104 102 100 98 96 95 95 95 95 95 94 94 93 92 91 89 86 86 86 84 83 82 79 76 74 71 70 69 66 63 60 57 54 51 47 43 40 38 39 36 29 30 32 30 29 27 26 25 21 20 20 18 18 17 15 16 15 14 15 14 13 13 13 14 14 13 12 7 3 2 360 358 357 353 350 348 349 350 349 348 346 345 346 347
109 108 107 105 103 101 99 97 95 94 93 92 93 93 93 92 91 91 90 90 89 87 86 85 82 81 79 75 72 69 67 65 63 59 56 54 50 47 44 39 35 33 33 32 29 29 30 28 28 26 25 22 19 20 18 16 17 15 14 15 14 14 16 14 12 13 13 14 14 14 12 7 3 2 1 359 356 352 351 351 352 352 350 348 346 347 348 347
111 109 107 105 103 101 100 98 96 95 94 93 92 91 91 91 92 93 92 90 90 88 86 85 82 80 78 74 70 66 62 60 59 56 52 50 47 43 40 35 31 30 29 29 27 28 29 27 26 23 22 20 19 19 17 15 15 13 13 13 12 14 16 14 13 13 13 13 14 13 11 8 6 4 1 358 355 353 354 354 353 352 350 348 348 349 350 349
112 110 108 106 103 101 99 97 96 95 93 92 91 91 91 91 92 94 93 91 90 89 86 84 81 78 75 71 68 63 59 57 56 53 50 47 44 39 34 31 28 25 26 27 26 26 26 24 22 20 20 19 18 17 15 14 14 12 12 12 12 14 15 14 15 13 12 14 14 13 11 9 8 5 1 357 356 355 357 356 353 351 350 350 351 351 351 350
113 112 110 108 105 102 99 96 95 94 92 91 90 91 92 93 93 93 93 92 90 87 85 82 79 76 73 69 66 62 57 54 52 50 48 44 40 34 28 26 25 22 24 25 25 25 23 21 20 19 19 17 16 15 13 13 13 11 10 10 11 14 15 15 15 14 12 14 14 13 12 10 7 5 2 358 357 358 358 355 352 351 351 351 352 353 352 352
117 114 112 110 108 105 101 98 95 93 92 91 90 89 90 93 95 93 93 93 88 84 82 79 75 72 68 64 59 55 51 48 47 46 43 40 36 29 23 23 22 20 23 24 24 23 21 18 18 18 17 15 14 13 11 12 11 9 9 9 10 13 14 14 15 15 12 12 13 12 12 11 7 4 2 359 359 359 357 355 353 352 353 353 353 353 353 353
121 117 114 111 108 105 103 100 98 95 92 91 89 87 85 90 94 91 91 90 86 81 78 74 69 65 61 57 52 49 46 44 42 41 39 37 31 23 20 21 19 19 22 23 21 21 18 17 16 16 14 13 12 10 10 11 9 8 9 9 10 11 10 11 13 14 13 10 10 12 11 9 8 5 2 1 1 360 356 354 354 354 355 355 354 354 354 353
127 122 117 113 107 103 100 99 98 97 94 91 88 84 80 83 88 86 85 84 81 77 71 64 60 56 52 49 46 44 42 39 36 36 35 31 24 18 18 19 18 18 20 20 19 17 16 14 14 12 11 11 11 10 9 8 8 9 9 9 10 9 7 8 10 12 13 9 9 11 10 8 7 5 3 3 2 359 356 355 355 355 356 356 355 355 355 354
135 129 123 118 110 103 98 96 95 95 94 92 88 81 76 77 80 79 77 76 73 68 62 55 49 45 43 41 40 38 37 34 33 32 30 25 19 16 17 18 17 18 18 18 16 15 13 11 11 9 8 9 9 8 8 7 7 9 8 9 9 7 5 6 7 9 11 10 10 10 9 7 6 5 3 3 1 358 357 357 356 356 356 357 357 356 356 355
145 139 132 127 118 108 102 97 91 90 91 92 87 80 74 73 73 71 70 68 64 59 54 47 41 37 36 36 34 33 32 30 30 30 26 20 16 16 17 18 17 16 16 16 14 12 10 9 8 6 7 8 7 6 6 6 7 7 7 8 7 5 4 4 5 6 9 12 12 9 8 8 6 5 4 2 1 1 360 358 356 355 355 356 358 358 357 357
157 151 143 138 130 118 108 99 91 84 81 82 82 79 74 69 65 62 61 58 55 51 46 41 36 31 30 30 28 28 28 27 27 26 22 17 16 17 17 17 16 15 15 14 12 10 8 7 6 4 5 7 5 4 5 5 6 6 6 6 5 3 3 3 4 5 7 11 11 8 7 7 6 4 3 2 2 2 0 359 357 355 355 357 358 358 358 358
173 168 160 153 145 130 115 104 90 78 67 63 71 73 67 60 55 52 48 46 44 41 37 32 27 22 23 24 23 24 24 25 24 21 18 17 17 17 16 15 15 14 13 11 10 9 6 5 4 3 4 5 4 3 4 4 5 5 4 4 2 2 3 3 3 4 6 8 9 8 6 6 5 3 2 2 2 1 1 360 358 356 356 357 358 358 358 359
187 184 179 174 166 154 141 112 63 63 63 52 55 59 52 43 42 38 33 30 27 26 25 22 17 16 18 20 20 22 22 22 21 18 16 16 16 15 14 13 12 11 9 8 7 6 5 3 3 3 3 3 2 2 2 2 3 3 3 2 1 2 3 3 3 3 5 6 6 7 7 6 5 3 2 3 2 1 1 0 359 358 358 358 358 358 359 359
200 198 196 194 190 187 191 215 343 18 61 41 32 38 34 25 24 23 20 16 12 11 12 12 11 12 15 17 19 20 20 19 17 16 14 13 13 12 10 9 8 7 5 4 4 4 3 2 2 2 3 1 1 2 1 1 1 1 1 1 1 1 1 2 2 3 3 4 5 7 7 6 4 3 3 2 1 1 1 0 360 359 359 358 358 359 359 359
209 209 209 208 209 213 219 243 297 304 306 357 5 11 12 9 7 6 6 6 4 2 3 5 6 9 13 16 17 17 16 15 14 12 10 9 8 6 6 4 3 2 1 1 0 1 2 2 1 1 1 1 0 0 360 360 359 358 359 360 360 0 360 0 2 3 2 1 3 6 6 4 3 3 2 2 2 2 1 0 360 360 359 359 358 358 359 359
216 217 218 219 223 229 234 249 277 286 289 308 330 347 352 351 352 352 353 355 356 356 358 0 2 6 10 13 13 12 11 11 9 7 4 2 1 1 0 359 359 359 358 357 358 358 359 0 0 360 360 360 359 359 359 359 358 357 358 358 359 359 358 358 360 1 1 360 0 4 5 3 1 1 1 1 2 2 2 1 1 0 360 359 358 358 359 359
222 223 226 228 233 238 242 252 268 275 281 292 306 323 334 336 337 339 342 345 348 350 354 357 358 1 6 7 7 6 6 4 3 360 357 356 356 356 355 355 356 356 356 355 356 356 357 358 359 359 359 358 358 358 357 357 357 357 357 356 357 357 356 357 358 358 359 359 358 1 4 3 1 360 360 0 1 2 2 2 1 0 359 358 358 358 358 358
224 226 231 234 238 241 245 255 266 270 275 284 296 312 321 324 326 329 333 337 340 344 347 350 352 356 359 0 360 359 358 357 355 352 351 351 352 352 352 353 353 353 354 354 354 354 354 355 357 357 357 357 357 356 357 356 356 356 355 354 354 355 354 355 356 355 357 359 358 358 1 3 2 360 359 360 360 1 2 2 1 360 359 359 358 357 358 358
229 230 234 237 241 245 249 257 263 268 276 283 293 305 312 316 319 323 326 329 333 337 340 342 346 349 351 353 353 352 350 348 347 346 346 347 349 350 351 351 352 351 352 352 352 352 351 352 354 354 355 356 355 355 356 356 355 354 354 353 353 352 352 353 354 354 355 358 358 357 357 1 2 1 360 360 359 360 1 1 1 0 359 359 358 357 357 358
234 236 238 239 243 248 251 257 261 264 274 282 289 298 304 308 313 318 320 323 326 331 335 338 340 341 343 344 345 344 342 341 341 342 343 345 347 349 350 350 350 350 349 350 350 350 350 351 352 352 353 354 354 353 353 354 354 352 351 352 351 350 350 351 353 353 353 355 357 356 355 358 1 0 359 360 360 360 1 1 1 0 360 359 358 357 357 357
233 238 240 240 244 248 250 256 263 266 273 280 285 291 297 302 308 313 316 318 320 325 329 332 334 334 334 336 336 336 337 337 338 340 342 345 346 347 348 348 348 347 347 348 348 349 349 350 350 350 351 352 352 352 352 352 352 350 349 350 350 349 349 350 350 351 352 352 354 355 355 356 359 359 359 359 359 359 360 0 0 360 360 359 358 357 356 356
231 238 243 242 243 248 251 256 263 269 276 281 286 290 293 298 303 307 310 313 314 317 320 323 326 327 328 330 332 333 334 335 337 340 342 344 345 345 345 346 345 345 346 346 347 349 348 349 350 349 349 349 350 350 350 350 349 348 347 347 348 348 348 348 348 349 351 351 351 353 354 355 356 358 358 358 358 358 359 359 360 359 359 358 357 356 355 355
234 238 244 247 249 251 254 260 265 270 277 282 285 289 291 294 297 300 303 306 308 311 314 317 320 323 325 328 330 332 334 335 338 341 341 341 342 343 342 343 343 343 344 345 346 348 348 347 349 349 348 347 347 347 348 348 348 347 345 344 345 347 347 347 346 347 348 349 350 351 353 354 355 357 358 358 357 358 357 358 358 358 358 358 356 355 355 355
237 239 243 249 254 257 260 265 270 273 277 281 284 288 290 292 294 295 298 302 304 308 311 314 318 321 324 327 329 330 332 334 335 337 339 338 339 340 340 340 341 341 342 343 344 345 346 346 346 347 346 345 344 345 345 346 346 345 343 343 344 345 346 347 346 344 345 347 349 350 351 352 354 356 358 357 357 357 356 357 357 357 357 357 355 354 354 355
239 242 245 250 254 258 262 266 271 274 277 279 283 286 289 291 292 293 295 299 302 306 310 313 316 318 321 324 326 327 329 330 331 333 335 335 336 337 337 338 339 339 339 341 341 342 343 343 343 344 344 343 343 343 343 344 344 344 343 342 343 343 344 346 345 343 343 345 348 349 349 351 354 356 357 357 357 356 355 355 356 356 356 355 355 353 353 354
239 242 245 249 253 256 259 263 266 269 272 276 280 284 286 288 289 291 294 297 300 302 305 308 311 313 315 319 321 322 324 326 326 329 332 332 332 334 334 335 336 336 337 338 339 339 340 340 340 341 343 343 342 342 342 341 341 343 343 342 341 340 342 345 344 342 341 343 346 348 348 350 353 355 356 357 357 355 355 354 354 355 354 354 353 353 353 353